Weather History for KOWB - March, 2013

Change the Weather History Date:

Tuesday, March 5, 2013

  Actual Average Record
Temperature  
Mean Temperature 41 °F -  
Max Temperature 50 °F 55 °F 76 °F (1956)
Min Temperature 32 °F 32 °F -6 °F (1960)
Degree Days  
Heating Degree Days 24    
Moisture  
Dew Point 36 °F    
Average Humidity 87    
Maximum Humidity 100    
Minimum Humidity 70    
Precipitation  
Precipitation 0.12 in - - ()
Sea Level Pressure  
Sea Level Pressure 29.83 in    
Wind  
Wind Speed 12 mph (WNW)    
Max Wind Speed 28 mph    
Max Gust Speed 39 mph    
Visibility 6 miles    
Events Rain , Snow    
Averages and records for this station are not official NWS values.
T = Trace of Precipitation, MM = Missing Value Source: NWS Daily Summary

Daily Weather History Graph

Daily Weather History Graph

Search for Another Location

Airport or City:

Trip Planner

Search our weather history database for the weather conditions in past years. The results will help you decide how hot, cold, wet, or windy it might be!

Date:

Astronomy

Mar. 05, 2013 Rise Set
Actual Time 6:14 AM CST 5:46 PM CST
Civil Twilight 5:47 AM CST 6:12 PM CST
Nautical Twilight 5:17 AM CST 6:43 PM CST
Astronomical Twilight 4:47 AM CST 7:13 PM CST
Moon 1:21 AM CST (3/5) 11:30 AM CST (3/5)
Length of Visible Light 12h 24m
Length of Day
11h 32m
Last Quarter, 40% of the Moon is Illuminated
Mar 5
Last Quarter
Mar 11
New
Mar 19
First Quarter
Mar 27
Full
Apr 2
Last Quarter

Hourly Weather History & Observations

Time (CST) Temp. Windchill Dew Point Humidity Pressure Visibility Wind Dir Wind Speed Gust Speed Precip Events Conditions
1:56 AM 45.9 °F 41.7 °F 37.9 °F 74% 29.84 in 10.0 mi SE 8.1 mph - 0.01 in Rain Light Rain
2:56 AM 45.0 °F 40.6 °F 41.0 °F 86% 29.82 in 10.0 mi SE 8.1 mph - 0.01 in   Overcast
3:56 AM 45.0 °F 40.1 °F 41.9 °F 89% 29.79 in 10.0 mi SE 9.2 mph - 0.00 in   Overcast
4:56 AM 45.0 °F 40.6 °F 43.0 °F 93% 29.78 in 10.0 mi SE 8.1 mph - N/A   Overcast
6:56 AM 45.9 °F 43.6 °F 43.9 °F 93% 29.78 in 10.0 mi SE 4.6 mph - N/A   Overcast
7:56 AM 47.8 °F - 45.0 °F 90% 29.78 in 10.0 mi Calm Calm - N/A   Overcast
8:56 AM 48.9 °F - 45.9 °F 89% 29.76 in 7.0 mi Calm Calm - N/A   Overcast
9:56 AM 50.0 °F - 46.9 °F 89% 29.74 in 7.0 mi WSW 6.9 mph - 0.00 in Rain Light Rain
10:56 AM 50.0 °F - 45.9 °F 86% 29.72 in 9.0 mi WNW 12.7 mph - 0.00 in Rain Light Rain
10:58 AM 50.0 °F - 46.4 °F 87% 29.72 in 10.0 mi WNW 10.4 mph - 0.00 in Rain Light Rain
11:56 AM 46.9 °F - 43.0 °F 86% 29.73 in 6.0 mi WNW 15.0 mph 25.3 mph 0.01 in Rain Light Rain
12:56 PM 41.9 °F 34.0 °F 38.8 °F 89% 29.74 in 5.0 mi WNW 16.1 mph 26.5 mph 0.01 in Rain Light Rain
1:32 PM 37.4 °F 26.9 °F 35.6 °F 93% 29.76 in 2.0 mi WNW 20.7 mph - 0.03 in Rain Light Rain
1:38 PM 35.6 °F 25.2 °F 35.6 °F 100% 29.77 in 1.5 mi WNW 18.4 mph 26.5 mph 0.04 in Rain , Snow Light Rain
1:56 PM 34.9 °F 24.6 °F 34.0 °F 97% 29.78 in 1.0 mi WNW 17.3 mph 23.0 mph 0.05 in Rain , Snow Light Rain
2:06 PM 33.8 °F 23.2 °F 33.8 °F 100% 29.77 in 1.0 mi WNW 17.3 mph - 0.01 in Rain , Snow Light Rain
2:08 PM 33.8 °F 23.5 °F 33.8 °F 100% 29.78 in 0.8 mi WNW 16.1 mph - 0.01 in Rain , Snow Light Rain
2:23 PM 33.8 °F 23.2 °F 33.8 °F 100% 29.78 in 1.2 mi WNW 17.3 mph - 0.02 in Snow Light Snow
2:56 PM 34.0 °F 23.0 °F 32.9 °F 96% 29.81 in 1.0 mi WNW 18.4 mph 28.8 mph 0.02 in Snow Light Snow
3:33 PM 35.6 °F 25.2 °F 33.8 °F 93% 29.83 in 2.0 mi WNW 18.4 mph 26.5 mph 0.01 in Snow Light Snow
3:56 PM 34.9 °F 22.7 °F 32.9 °F 92% 29.85 in 6.0 mi WNW 24.2 mph 29.9 mph 0.01 in Snow Light Snow
4:56 PM 36.0 °F 23.5 °F 32.0 °F 86% 29.89 in 6.0 mi WNW 27.6 mph 39.1 mph 0.00 in Snow Light Snow
5:56 PM 34.9 °F 24.2 °F 29.1 °F 79% 29.92 in 7.0 mi WNW 18.4 mph - 0.00 in   Overcast
6:56 PM 34.0 °F 21.5 °F 25.2 °F 70% 29.95 in 10.0 mi WNW 24.2 mph 32.2 mph N/A   Overcast
7:56 PM 32.9 °F 20.7 °F 24.1 °F 70% 29.95 in 10.0 mi WNW 21.9 mph 34.5 mph 0.00 in   Overcast
8:56 PM 32.9 °F 20.4 °F 25.2 °F 73% 29.95 in 10.0 mi WNW 23.0 mph 35.7 mph 0.00 in Snow Light Snow
9:56 PM 32.0 °F 20.8 °F 27.1 °F 82% 29.95 in 8.0 mi WNW 17.3 mph 24.2 mph 0.00 in Snow Light Snow
10:20 PM 33.8 °F 22.8 °F 26.6 °F 75% 29.94 in 9.0 mi West 18.4 mph 26.5 mph 0.00 in Snow Light Snow
10:56 PM 32.9 °F 21.3 °F 28.0 °F 82% 29.95 in 6.0 mi WNW 19.6 mph 27.6 mph 0.00 in Snow Light Snow
11:56 PM 32.9 °F 22.0 °F 28.0 °F 82% 29.95 in 10.0 mi WNW 17.3 mph 27.6 mph 0.00 in Snow Light Snow